Total_Precipitation_Accumulation
0.77 0.84 0.88 0.87 0.78 0.85 0.87 0.86 0.85 0.88 0.79 0.79 0.81 0.82 0.81 0.81 0.84 0.88 0.87 0.92 1.01 1.13 1.15 1.13 1.13 1.15 1.15 1.08 1.12 1.10 1.05 1.15 1.16 0.96 1.01 1.05 0.95 0.79 0.69 0.65 0.64 0.69 0.65
0.74 0.84 0.90 0.94 0.85 0.83 0.85 0.89 0.91 0.98 1.02 0.98 0.93 0.93 0.87 0.89 0.99 1.02 1.03 1.01 1.01 1.06 1.24 1.45 1.45 1.43 1.33 1.19 1.24 1.20 1.16 1.31 1.26 1.15 1.22 1.23 1.18 0.98 0.87 0.76 0.61 0.61 0.65
0.79 0.82 0.89 0.93 0.87 0.86 0.96 1.04 1.04 1.13 1.19 1.19 1.14 1.05 0.96 0.94 0.96 1.00 1.08 1.09 1.11 1.19 1.33 1.45 1.54 1.65 1.52 1.39 1.33 1.29 1.31 1.38 1.40 1.31 1.32 1.42 1.40 1.18 1.00 0.78 0.60 0.64 0.58
0.75 0.81 0.86 0.89 0.92 0.95 1.02 1.09 1.11 1.16 1.22 1.27 1.26 1.21 1.15 1.04 0.96 0.98 1.02 1.06 1.19 1.35 1.40 1.34 1.43 1.68 1.74 1.68 1.52 1.42 1.42 1.47 1.48 1.47 1.48 1.59 1.62 1.53 1.31 1.02 0.83 0.74 0.62
0.85 0.96 1.01 1.11 1.19 1.22 1.26 1.25 1.22 1.24 1.24 1.33 1.40 1.39 1.32 1.18 1.00 1.02 1.11 1.07 1.17 1.23 1.22 1.15 1.14 1.31 1.53 1.66 1.54 1.48 1.49 1.48 1.48 1.55 1.61 1.68 1.69 1.73 1.57 1.27 1.07 0.95 0.78
0.99 1.14 1.24 1.37 1.45 1.53 1.66 1.76 1.67 1.58 1.62 1.69 1.65 1.55 1.45 1.14 1.10 1.06 1.05 1.07 1.13 1.14 1.12 1.09 1.00 0.94 1.02 1.20 1.36 1.49 1.56 1.49 1.44 1.52 1.66 1.70 1.70 1.69 1.65 1.48 1.24 1.03 0.87
1.12 1.32 1.46 1.58 1.71 1.86 1.96 1.99 1.94 1.98 2.04 2.05 1.97 1.79 1.65 1.53 1.36 1.15 1.05 1.01 1.01 1.02 1.05 1.05 0.89 0.81 0.91 0.91 1.06 1.18 1.30 1.36 1.35 1.42 1.52 1.61 1.71 1.81 1.80 1.60 1.40 1.23 1.02
1.36 1.52 1.67 1.71 1.74 1.83 1.92 1.87 1.88 2.00 2.08 2.08 2.01 1.89 1.80 1.69 1.51 1.24 1.16 0.99 1.00 1.03 1.06 1.06 1.02 0.96 0.94 0.97 1.00 1.01 1.02 1.09 1.16 1.17 1.28 1.45 1.63 1.79 1.91 1.79 1.65 1.38 1.17
1.37 1.45 1.50 1.61 1.72 1.76 1.79 1.82 1.86 1.89 1.81 1.72 1.70 1.71 1.71 1.76 1.62 1.32 1.20 1.09 1.17 1.17 1.16 1.16 1.15 1.09 1.14 0.99 0.93 0.97 0.99 1.02 1.05 1.08 1.11 1.25 1.50 1.67 1.73 1.73 1.63 1.44 1.21
1.35 1.37 1.37 1.50 1.62 1.69 1.74 1.78 1.75 1.71 1.65 1.61 1.54 1.57 1.60 1.61 1.57 1.25 1.15 1.09 1.19 1.21 1.24 1.23 1.17 1.05 1.02 0.88 0.82 0.90 0.91 0.91 0.96 0.97 0.98 0.99 1.06 1.33 1.58 1.43 1.35 1.31 1.16
1.19 1.26 1.33 1.47 1.59 1.65 1.72 1.72 1.69 1.65 1.66 1.66 1.60 1.52 1.50 1.50 1.48 1.21 1.08 1.00 1.12 1.24 1.23 1.18 1.15 1.05 0.83 0.76 0.73 0.78 0.82 0.84 0.94 0.95 0.92 0.93 0.99 1.09 1.26 1.29 1.21 1.15 1.09
0.99 1.06 1.09 1.19 1.34 1.41 1.50 1.50 1.53 1.50 1.47 1.45 1.42 1.35 1.31 1.33 1.26 1.15 0.96 0.86 0.93 1.07 1.17 1.19 1.21 1.05 0.80 0.68 0.58 0.55 0.53 0.50 0.61 0.74 0.80 0.82 0.85 0.94 1.05 1.17 1.19 1.16 1.04
0.84 0.84 0.88 0.95 1.12 1.28 1.33 1.32 1.34 1.35 1.32 1.29 1.26 1.21 1.18 1.15 1.09 0.91 0.76 0.66 0.69 0.82 1.00 1.12 1.05 0.88 0.73 0.61 0.53 0.48 0.44 0.42 0.52 0.63 0.70 0.73 0.73 0.80 1.02 1.28 1.42 1.44 1.34
0.86 0.86 0.89 0.96 1.07 1.31 1.42 1.33 1.27 1.25 1.21 1.20 1.15 1.16 1.19 1.21 1.15 0.95 0.74 0.59 0.63 0.75 0.86 0.91 0.92 0.91 0.87 0.80 0.68 0.57 0.48 0.50 0.55 0.63 0.74 0.85 0.93 1.00 1.09 1.24 1.42 1.47 1.45
0.77 0.73 0.74 0.82 0.95 1.16 1.30 1.30 1.15 1.12 1.14 1.16 1.13 1.11 1.06 1.03 1.01 0.90 0.76 0.73 0.77 0.85 0.85 0.91 0.93 1.00 1.04 1.03 0.97 0.87 0.80 0.77 0.73 0.74 0.87 0.99 1.03 1.06 1.09 1.18 1.31 1.34 1.24
0.81 0.75 0.73 0.75 0.85 1.04 1.25 1.33 1.16 0.97 0.96 0.95 0.90 0.87 0.83 0.76 0.72 0.71 0.68 0.67 0.73 0.76 0.73 0.88 1.01 1.09 1.16 1.17 1.17 1.10 1.00 0.91 0.84 0.86 0.92 1.00 1.04 1.05 1.07 1.17 1.27 1.28 1.15
0.83 0.78 0.76 0.75 0.78 0.89 1.12 1.36 1.40 1.15 0.93 0.83 0.72 0.62 0.59 0.55 0.56 0.60 0.65 0.63 0.61 0.59 0.58 0.74 0.90 1.00 1.11 1.15 1.16 1.10 1.04 0.99 0.97 0.98 1.03 1.05 1.09 1.09 1.10 1.12 1.20 1.24 1.16
0.81 0.78 0.70 0.66 0.68 0.78 0.99 1.27 1.45 1.40 1.21 0.95 0.67 0.51 0.46 0.42 0.44 0.53 0.59 0.56 0.53 0.49 0.49 0.60 0.73 0.86 1.00 1.13 1.19 1.16 1.12 1.10 1.02 0.99 1.06 1.08 1.11 1.15 1.12 1.08 1.12 1.20 1.18
0.77 0.75 0.68 0.66 0.67 0.71 0.89 1.16 1.35 1.40 1.32 1.19 0.88 0.57 0.45 0.42 0.44 0.53 0.54 0.54 0.57 0.53 0.52 0.56 0.62 0.73 0.90 1.06 1.15 1.21 1.20 1.14 1.03 1.01 1.04 1.08 1.09 1.13 1.11 1.06 1.10 1.20 1.22
0.64 0.62 0.52 0.50 0.54 0.58 0.68 0.89 1.13 1.25 1.18 1.12 0.96 0.59 0.37 0.35 0.45 0.60 0.66 0.72 0.71 0.64 0.59 0.61 0.63 0.71 0.86 1.04 1.14 1.18 1.22 1.16 1.10 1.07 1.06 1.10 1.12 1.13 1.12 1.08 1.08 1.15 1.13
0.56 0.50 0.40 0.35 0.42 0.47 0.52 0.70 0.94 1.11 1.07 0.98 0.85 0.54 0.35 0.39 0.53 0.65 0.78 0.82 0.81 0.75 0.70 0.66 0.66 0.72 0.83 0.97 1.06 1.10 1.16 1.14 1.09 1.07 1.06 1.09 1.13 1.14 1.19 1.19 1.13 1.14 1.15
0.43 0.43 0.39 0.39 0.44 0.46 0.49 0.66 0.89 1.05 1.01 0.94 0.84 0.61 0.47 0.51 0.61 0.71 0.77 0.75 0.72 0.66 0.63 0.67 0.71 0.76 0.82 0.89 0.97 1.06 1.11 1.11 1.10 1.08 1.09 1.11 1.15 1.15 1.19 1.21 1.17 1.14 1.15
0.31 0.32 0.31 0.33 0.37 0.37 0.47 0.65 0.81 0.90 0.88 0.84 0.74 0.62 0.59 0.62 0.63 0.67 0.70 0.69 0.67 0.64 0.63 0.69 0.75 0.78 0.83 0.87 0.90 0.98 1.02 1.01 1.01 1.02 1.08 1.11 1.13 1.13 1.14 1.14 1.11 1.12 1.09
0.29 0.31 0.32 0.33 0.35 0.42 0.53 0.66 0.73 0.73 0.72 0.69 0.66 0.66 0.68 0.69 0.65 0.63 0.66 0.68 0.70 0.71 0.71 0.69 0.71 0.72 0.74 0.77 0.80 0.82 0.86 0.83 0.80 0.83 0.89 0.97 1.01 1.03 1.05 1.08 1.09 1.09 1.08
0.24 0.28 0.34 0.39 0.43 0.49 0.58 0.67 0.69 0.68 0.64 0.61 0.61 0.64 0.65 0.61 0.63 0.66 0.70 0.72 0.72 0.70 0.65 0.65 0.67 0.65 0.63 0.62 0.62 0.64 0.67 0.62 0.55 0.59 0.67 0.81 0.89 0.93 0.94 0.99 1.04 1.07 1.08
0.21 0.24 0.31 0.37 0.41 0.45 0.55 0.64 0.62 0.57 0.53 0.52 0.55 0.61 0.62 0.62 0.66 0.69 0.71 0.74 0.76 0.72 0.70 0.68 0.62 0.61 0.60 0.60 0.58 0.59 0.54 0.45 0.41 0.44 0.48 0.61 0.76 0.84 0.88 0.94 0.97 1.05 1.07